Time,TemperatureF,DewpointF,PressureIn,WindDirection,WindDirectionDegrees,WindSpeedMPH,WindSpeedGustMPH,Humidity,HourlyPrecipIn,Conditions,Clouds,dailyrainin,SolarRadiationWatts/m^2,SoftwareType,DateUTC
2013-03-14 08:44:00,55.9,42.6,30.18,North,355,9.0,12.0,61,0.00,,,0.00,88.0,meteohub,2013-03-14 12:44:00,
2013-03-14 08:45:00,55.9,42.6,30.18,NNW,344,7.0,12.0,61,0.00,,,0.00,88.0,meteohub,2013-03-14 12:45:00,
2013-03-14 08:50:00,56.1,42.4,30.18,NNW,345,11.0,12.0,60,0.00,,,0.00,111.0,meteohub,2013-03-14 12:50:00,
2013-03-14 08:55:00,56.5,42.8,30.18,North,351,6.0,12.0,60,0.00,,,0.00,128.0,meteohub,2013-03-14 12:55:00,
2013-03-14 09:00:00,56.5,43.2,30.18,NW,319,10.0,14.0,61,0.00,,,0.00,141.0,meteohub,2013-03-14 13:00:00,
2013-03-14 09:05:00,56.7,43.3,30.18,NNW,336,7.0,14.0,61,0.00,,,0.00,114.0,meteohub,2013-03-14 13:05:00,
2013-03-14 09:10:00,56.7,44.2,30.18,North,355,11.0,14.0,63,0.00,,,0.00,330.0,meteohub,2013-03-14 13:10:00,
2013-03-14 09:15:00,57.6,44.6,30.19,NNW,327,7.0,12.0,62,0.00,,,0.00,323.0,meteohub,2013-03-14 13:15:00,
2013-03-14 09:20:00,58.5,45.1,30.19,NNW,333,9.0,12.0,61,0.00,,,0.00,302.0,meteohub,2013-03-14 13:20:00,
2013-03-14 09:25:00,59.5,46.0,30.19,NNW,338,7.0,11.0,61,0.00,,,0.00,362.0,meteohub,2013-03-14 13:25:00,
2013-03-14 09:30:00,59.7,45.9,30.19,NNW,338,8.0,11.0,60,0.00,,,0.00,383.0,meteohub,2013-03-14 13:30:00,
2013-03-14 09:35:00,60.4,46.0,30.19,NNW,348,5.0,12.0,59,0.00,,,0.00,401.0,meteohub,2013-03-14 13:35:00,
2013-03-14 09:40:00,61.0,46.0,30.19,NNW,339,10.0,13.0,58,0.00,,,0.00,418.0,meteohub,2013-03-14 13:40:00,
2013-03-14 09:45:00,61.5,46.6,30.19,North,355,13.0,14.0,58,0.00,,,0.00,438.0,meteohub,2013-03-14 13:45:00,
2013-03-14 09:50:00,62.4,46.6,30.19,North,350,10.0,15.0,56,0.00,,,0.00,455.0,meteohub,2013-03-14 13:50:00,
2013-03-14 09:55:00,62.8,46.4,30.19,North,355,9.0,15.0,55,0.00,,,0.00,473.0,meteohub,2013-03-14 13:55:00,
2013-03-14 10:00:00,63.0,46.0,30.19,NNW,338,9.0,15.0,54,0.00,,,0.00,492.0,meteohub,2013-03-14 14:00:00,
2013-03-14 10:05:00,63.7,46.2,30.20,NNW,338,9.0,15.0,53,0.00,,,0.00,501.0,meteohub,2013-03-14 14:05:00,
2013-03-14 10:10:00,64.0,46.0,30.20,NNW,327,7.0,15.0,52,0.00,,,0.00,524.0,meteohub,2013-03-14 14:10:00,
2013-03-14 10:15:00,64.8,45.7,30.20,North,350,14.0,15.0,50,0.00,,,0.00,540.0,meteohub,2013-03-14 14:15:00,
2013-03-14 10:20:00,65.3,44.6,30.20,North,5,11.0,15.0,47,0.00,,,0.00,557.0,meteohub,2013-03-14 14:20:00,
2013-03-14 10:25:00,65.8,43.3,30.20,North,10,9.0,15.0,44,0.00,,,0.00,577.0,meteohub,2013-03-14 14:25:00,
2013-03-14 10:30:00,65.8,42.8,30.20,NNW,338,14.0,23.0,43,0.00,,,0.00,594.0,meteohub,2013-03-14 14:30:00,
2013-03-14 10:35:00,65.7,43.2,30.20,NNE,20,8.0,23.0,44,0.00,,,0.00,608.0,meteohub,2013-03-14 14:35:00,
2013-03-14 10:40:00,66.6,44.1,30.20,NNW,342,10.0,23.0,44,0.00,,,0.00,622.0,meteohub,2013-03-14 14:40:00,
2013-03-14 10:45:00,66.2,41.7,30.20,North,355,9.0,19.0,41,0.00,,,0.00,638.0,meteohub,2013-03-14 14:45:00,
2013-03-14 10:53:00,66.6,42.8,30.20,North,355,10.0,19.0,42,0.00,,,0.00,657.0,meteohub,2013-03-14 14:53:00,
2013-03-14 10:58:00,66.9,41.2,30.20,North,5,11.0,18.0,39,0.00,,,0.00,675.0,meteohub,2013-03-14 14:58:00,
2013-03-14 11:03:00,67.5,42.3,30.20,NNE,18,9.0,17.0,40,0.00,,,0.00,689.0,meteohub,2013-03-14 15:03:00,
2013-03-14 11:08:00,68.2,42.3,30.20,North,5,16.0,17.0,39,0.00,,,0.00,701.0,meteohub,2013-03-14 15:08:00,
2013-03-14 11:13:00,67.5,41.0,30.20,NNW,336,13.0,17.0,38,0.00,,,0.00,715.0,meteohub,2013-03-14 15:13:00,
2013-03-14 11:18:00,67.8,41.9,30.20,NNW,348,13.0,18.0,39,0.00,,,0.00,726.0,meteohub,2013-03-14 15:18:00,
2013-03-14 11:23:00,67.8,40.6,30.20,NNW,345,11.0,18.0,37,0.00,,,0.00,740.0,meteohub,2013-03-14 15:23:00,
2013-03-14 11:28:00,67.8,39.2,30.19,NNW,338,12.0,17.0,35,0.00,,,0.00,751.0,meteohub,2013-03-14 15:28:00,
2013-03-14 11:33:00,67.8,41.4,30.20,North,5,12.0,20.0,38,0.00,,,0.00,759.0,meteohub,2013-03-14 15:33:00,
2013-03-14 11:38:00,68.4,40.3,30.20,NNE,15,12.0,20.0,36,0.00,,,0.00,773.0,meteohub,2013-03-14 15:38:00,
2013-03-14 11:43:00,68.2,40.3,30.20,North,355,11.0,20.0,36,0.00,,,0.00,784.0,meteohub,2013-03-14 15:43:00,
2013-03-14 11:48:00,68.4,40.3,30.20,NNW,335,7.0,18.0,36,0.00,,,0.00,793.0,meteohub,2013-03-14 15:48:00,
2013-03-14 11:53:00,68.5,39.7,30.20,NNW,346,10.0,18.0,35,0.00,,,0.00,805.0,meteohub,2013-03-14 15:53:00,
2013-03-14 11:58:00,69.3,39.7,30.20,NNW,338,8.0,17.0,34,0.00,,,0.00,809.0,meteohub,2013-03-14 15:58:00,
2013-03-14 12:03:00,69.4,39.0,30.20,NNW,333,12.0,17.0,33,0.00,,,0.00,819.0,meteohub,2013-03-14 16:03:00,
2013-03-14 12:08:00,69.4,39.9,30.20,NNW,336,13.0,17.0,34,0.00,,,0.00,830.0,meteohub,2013-03-14 16:08:00,
2013-03-14 12:13:00,69.6,41.5,30.20,North,355,10.0,16.0,36,0.00,,,0.00,837.0,meteohub,2013-03-14 16:13:00,
2013-03-14 12:18:00,69.8,40.1,30.20,North,355,15.0,17.0,34,0.00,,,0.00,842.0,meteohub,2013-03-14 16:18:00,
2013-03-14 12:23:00,69.6,41.5,30.20,North,11,8.0,17.0,36,0.00,,,0.00,849.0,meteohub,2013-03-14 16:23:00,
2013-03-14 12:28:00,69.6,40.8,30.20,North,351,8.0,17.0,35,0.00,,,0.00,860.0,meteohub,2013-03-14 16:28:00,
2013-03-14 12:33:00,69.8,41.7,30.19,NNW,348,9.0,16.0,36,0.00,,,0.00,863.0,meteohub,2013-03-14 16:33:00,
2013-03-14 12:38:00,69.6,42.3,30.19,NNW,346,4.0,16.0,37,0.00,,,0.00,868.0,meteohub,2013-03-14 16:38:00,
2013-03-14 12:43:00,70.7,42.4,30.19,North,0,5.0,16.0,36,0.00,,,0.00,875.0,meteohub,2013-03-14 16:43:00,
2013-03-14 12:48:00,71.1,42.8,30.19,NW,324,10.0,14.0,36,0.00,,,0.00,881.0,meteohub,2013-03-14 16:48:00,
2013-03-14 12:53:00,70.3,39.0,30.19,NNW,335,5.0,14.0,32,0.00,,,0.00,882.0,meteohub,2013-03-14 16:53:00,
2013-03-14 12:58:00,71.2,42.3,30.19,North,5,7.0,16.0,35,0.00,,,0.00,888.0,meteohub,2013-03-14 16:58:00,
2013-03-14 13:03:00,71.4,41.5,30.18,North,350,4.0,16.0,34,0.00,,,0.00,895.0,meteohub,2013-03-14 17:03:00,
2013-03-14 13:08:00,71.6,41.7,30.18,NNW,331,11.0,16.0,34,0.00,,,0.00,893.0,meteohub,2013-03-14 17:08:00,
2013-03-14 13:13:00,71.4,42.3,30.18,North,355,8.0,15.0,35,0.00,,,0.00,888.0,meteohub,2013-03-14 17:13:00,
2013-03-14 13:19:00,71.1,42.1,30.18,NNE,22,7.0,15.0,35,0.00,,,0.00,896.0,meteohub,2013-03-14 17:19:00,
2013-03-14 13:24:00,72.1,41.4,30.18,NNW,344,9.0,15.0,33,0.00,,,0.00,889.0,meteohub,2013-03-14 17:24:00,
2013-03-14 13:29:00,71.4,41.5,30.18,North,355,6.0,15.0,34,0.00,,,0.00,893.0,meteohub,2013-03-14 17:29:00,
2013-03-14 13:34:00,72.3,42.4,30.17,NNE,13,9.0,15.0,34,0.00,,,0.00,895.0,meteohub,2013-03-14 17:34:00,
2013-03-14 13:39:00,71.4,40.8,30.17,NNW,342,7.0,15.0,33,0.00,,,0.00,898.0,meteohub,2013-03-14 17:39:00,
2013-03-14 13:44:00,71.8,43.3,30.17,NNE,27,16.0,16.0,36,0.00,,,0.00,891.0,meteohub,2013-03-14 17:44:00,
2013-03-14 13:49:00,71.4,41.5,30.17,NNW,337,6.0,16.0,34,0.00,,,0.00,895.0,meteohub,2013-03-14 17:49:00,
2013-03-14 13:54:00,70.5,42.3,30.17,NE,37,9.0,16.0,36,0.00,,,0.00,904.0,meteohub,2013-03-14 17:54:00,
2013-03-14 13:59:00,70.2,42.6,30.16,NNE,24,12.0,16.0,37,0.00,,,0.00,786.0,meteohub,2013-03-14 17:59:00,
2013-03-14 14:04:00,70.2,43.3,30.16,NNE,18,7.0,15.0,38,0.00,,,0.00,884.0,meteohub,2013-03-14 18:04:00,
2013-03-14 14:09:00,70.0,42.4,30.16,NE,34,8.0,16.0,37,0.00,,,0.00,907.0,meteohub,2013-03-14 18:09:00,
2013-03-14 14:14:00,70.2,42.6,30.16,NNE,21,4.0,16.0,37,0.00,,,0.00,882.0,meteohub,2013-03-14 18:14:00,
2013-03-14 14:19:00,71.1,44.2,30.15,North,355,10.0,14.0,38,0.00,,,0.00,875.0,meteohub,2013-03-14 18:19:00,
2013-03-14 14:24:00,71.4,43.7,30.15,NNE,20,10.0,14.0,37,0.00,,,0.00,863.0,meteohub,2013-03-14 18:24:00,
2013-03-14 14:29:00,71.2,44.2,30.15,NNW,344,4.0,15.0,38,0.00,,,0.00,856.0,meteohub,2013-03-14 18:29:00,
2013-03-14 14:35:00,72.1,44.4,30.15,NW,323,12.0,15.0,37,0.00,,,0.00,853.0,meteohub,2013-03-14 18:35:00,
2013-03-14 14:40:00,71.4,43.2,30.15,NNE,19,8.0,15.0,36,0.00,,,0.00,844.0,meteohub,2013-03-14 18:40:00,
2013-03-14 14:45:00,71.4,44.4,30.15,NE,41,7.0,16.0,38,0.00,,,0.00,837.0,meteohub,2013-03-14 18:45:00,
2013-03-14 14:50:00,71.2,43.7,30.14,NNE,22,9.0,16.0,37,0.00,,,0.00,763.0,meteohub,2013-03-14 18:50:00,
2013-03-14 14:55:00,70.9,44.1,30.14,NNE,24,9.0,16.0,38,0.00,,,0.00,826.0,meteohub,2013-03-14 18:55:00,
2013-03-14 15:00:00,71.2,43.0,30.14,North,5,12.0,16.0,36,0.00,,,0.00,812.0,meteohub,2013-03-14 19:00:00,
2013-03-14 15:05:00,71.2,43.7,30.14,NNE,29,6.0,16.0,37,0.00,,,0.00,803.0,meteohub,2013-03-14 19:05:00,
2013-03-14 15:10:00,70.2,43.3,30.14,NNE,23,10.0,16.0,38,0.00,,,0.00,793.0,meteohub,2013-03-14 19:10:00,
2013-03-14 15:15:00,71.1,42.8,30.14,ENE,57,9.0,16.0,36,0.00,,,0.00,784.0,meteohub,2013-03-14 19:15:00,
2013-03-14 15:20:00,70.9,42.6,30.14,NW,325,6.0,16.0,36,0.00,,,0.00,773.0,meteohub,2013-03-14 19:20:00,
2013-03-14 15:25:00,71.4,43.2,30.14,NNE,15,12.0,16.0,36,0.00,,,0.00,765.0,meteohub,2013-03-14 19:25:00,
2013-03-14 15:30:00,70.5,41.5,30.13,NE,46,7.0,15.0,35,0.00,,,0.00,759.0,meteohub,2013-03-14 19:30:00,
2013-03-14 15:36:00,70.3,41.4,30.13,NNE,14,13.0,16.0,35,0.00,,,0.00,745.0,meteohub,2013-03-14 19:36:00,
2013-03-14 15:41:00,70.2,40.5,30.13,NNE,29,8.0,16.0,34,0.00,,,0.00,728.0,meteohub,2013-03-14 19:41:00,
2013-03-14 15:46:00,70.0,37.9,30.13,NNE,26,6.0,19.0,31,0.00,,,0.00,722.0,meteohub,2013-03-14 19:46:00,
2013-03-14 15:51:00,70.3,42.1,30.13,NNE,28,6.0,19.0,36,0.00,,,0.00,707.0,meteohub,2013-03-14 19:51:00,
2013-03-14 15:56:00,70.9,39.6,30.13,North,5,6.0,19.0,32,0.00,,,0.00,686.0,meteohub,2013-03-14 19:56:00,
2013-03-14 16:01:00,71.1,40.5,30.13,North,351,14.0,16.0,33,0.00,,,0.00,675.0,meteohub,2013-03-14 20:01:00,
2013-03-14 16:06:00,70.9,39.6,30.13,NE,51,9.0,16.0,32,0.00,,,0.00,668.0,meteohub,2013-03-14 20:06:00,
2013-03-14 16:11:00,70.3,40.6,30.13,NNE,13,13.0,16.0,34,0.00,,,0.00,640.0,meteohub,2013-03-14 20:11:00,
2013-03-14 16:16:00,70.9,41.2,30.12,NNE,17,6.0,16.0,34,0.00,,,0.00,612.0,meteohub,2013-03-14 20:16:00,
2013-03-14 16:21:00,70.5,41.5,30.13,NNE,22,11.0,16.0,35,0.00,,,0.00,617.0,meteohub,2013-03-14 20:21:00,
2013-03-14 16:27:00,70.3,42.1,30.12,NNE,18,9.0,16.0,36,0.00,,,0.00,601.0,meteohub,2013-03-14 20:27:00,
2013-03-14 16:32:00,70.3,40.6,30.13,North,5,10.0,16.0,34,0.00,,,0.00,573.0,meteohub,2013-03-14 20:32:00,
2013-03-14 16:37:00,70.9,41.2,30.13,North,5,8.0,16.0,34,0.00,,,0.00,550.0,meteohub,2013-03-14 20:37:00,
2013-03-14 16:42:00,70.2,41.9,30.13,NNE,28,6.0,17.0,36,0.00,,,0.00,485.0,meteohub,2013-03-14 20:42:00,
2013-03-14 16:47:00,70.0,41.0,30.12,NNE,17,7.0,17.0,35,0.00,,,0.00,538.0,meteohub,2013-03-14 20:47:00,
2013-03-14 16:52:00,69.8,43.0,30.12,NNE,22,10.0,17.0,38,0.00,,,0.00,533.0,meteohub,2013-03-14 20:52:00,
2013-03-14 16:57:00,69.3,42.6,30.12,NE,36,5.0,16.0,38,0.00,,,0.00,499.0,meteohub,2013-03-14 20:57:00,
2013-03-14 17:02:00,69.4,42.8,30.13,NNE,25,7.0,16.0,38,0.00,,,0.00,468.0,meteohub,2013-03-14 21:02:00,
2013-03-14 17:07:00,69.1,43.7,30.13,NNE,25,9.0,16.0,40,0.00,,,0.00,459.0,meteohub,2013-03-14 21:07:00,
2013-03-14 17:12:00,68.7,43.3,30.12,NE,54,8.0,16.0,40,0.00,,,0.00,448.0,meteohub,2013-03-14 21:12:00,
2013-03-14 17:17:00,68.7,44.1,30.13,NE,38,7.0,16.0,41,0.00,,,0.00,434.0,meteohub,2013-03-14 21:17:00,
2013-03-14 17:22:00,68.4,43.7,30.13,NNE,22,12.0,18.0,41,0.00,,,0.00,411.0,meteohub,2013-03-14 21:22:00,
2013-03-14 17:27:00,68.2,43.5,30.13,NE,42,11.0,18.0,41,0.00,,,0.00,359.0,meteohub,2013-03-14 21:27:00,
2013-03-14 17:32:00,67.8,43.9,30.14,NE,34,13.0,18.0,42,0.00,,,0.00,381.0,meteohub,2013-03-14 21:32:00,
2013-03-14 17:37:00,67.6,45.0,30.14,NNE,22,11.0,21.0,44,0.00,,,0.00,285.0,meteohub,2013-03-14 21:37:00,
2013-03-14 17:42:00,67.3,44.6,30.14,NNE,13,13.0,21.0,44,0.00,,,0.00,355.0,meteohub,2013-03-14 21:42:00,
2013-03-14 17:48:00,66.9,44.2,30.14,NNE,28,11.0,21.0,44,0.00,,,0.00,313.0,meteohub,2013-03-14 21:48:00,
2013-03-14 17:53:00,66.7,43.5,30.14,NE,38,9.0,20.0,43,0.00,,,0.00,232.0,meteohub,2013-03-14 21:53:00,
2013-03-14 17:58:00,66.2,42.4,30.14,NNE,16,9.0,22.0,42,0.00,,,0.00,149.0,meteohub,2013-03-14 21:58:00,
2013-03-14 18:03:00,66.0,39.0,30.14,North,9,13.0,22.0,37,0.00,,,0.00,276.0,meteohub,2013-03-14 22:03:00,
2013-03-14 18:08:00,66.0,39.0,30.14,North,9,15.0,22.0,37,0.00,,,0.00,227.0,meteohub,2013-03-14 22:08:00,
2013-03-14 18:13:00,66.0,39.0,30.14,NNE,22,8.0,19.0,37,0.00,,,0.00,165.0,meteohub,2013-03-14 22:13:00,
2013-03-14 18:18:00,65.7,41.9,30.15,NNE,29,17.0,19.0,42,0.00,,,0.00,98.0,meteohub,2013-03-14 22:18:00,
2013-03-14 18:23:00,65.1,41.5,30.14,NNE,30,11.0,17.0,42,0.00,,,0.00,153.0,meteohub,2013-03-14 22:23:00,
2013-03-14 18:28:00,64.9,42.4,30.15,NE,49,6.0,17.0,44,0.00,,,0.00,169.0,meteohub,2013-03-14 22:28:00,
2013-03-14 18:33:00,64.8,42.3,30.15,NE,48,9.0,17.0,44,0.00,,,0.00,120.0,meteohub,2013-03-14 22:33:00,
2013-03-14 18:38:00,64.6,43.3,30.15,NNE,25,15.0,17.0,46,0.00,,,0.00,90.0,meteohub,2013-03-14 22:38:00,
2013-03-14 18:43:00,64.2,44.1,30.15,NNE,15,14.0,19.0,48,0.00,,,0.00,91.0,meteohub,2013-03-14 22:43:00,
2013-03-14 18:48:00,64.0,45.5,30.15,NNE,30,10.0,19.0,51,0.00,,,0.00,79.0,meteohub,2013-03-14 22:48:00,
2013-03-14 18:53:00,63.7,46.8,30.15,NE,49,10.0,19.0,54,0.00,,,0.00,54.0,meteohub,2013-03-14 22:53:00,
2013-03-14 18:58:00,63.3,46.4,30.16,NNE,32,16.0,17.0,54,0.00,,,0.00,44.0,meteohub,2013-03-14 22:58:00,
2013-03-14 19:03:00,63.1,47.1,30.16,NE,36,6.0,17.0,56,0.00,,,0.00,35.0,meteohub,2013-03-14 23:03:00,
2013-03-14 19:08:00,63.0,47.5,30.16,NNE,33,7.0,17.0,57,0.00,,,0.00,28.0,meteohub,2013-03-14 23:08:00,
2013-03-14 19:14:00,62.8,46.9,30.16,NE,38,12.0,17.0,56,0.00,,,0.00,19.0,meteohub,2013-03-14 23:14:00,
2013-03-14 19:19:00,62.4,46.9,30.17,NNE,27,12.0,16.0,57,0.00,,,0.00,14.0,meteohub,2013-03-14 23:19:00,
2013-03-14 19:24:00,62.1,47.1,30.17,NNE,32,11.0,16.0,58,0.00,,,0.00,9.0,meteohub,2013-03-14 23:24:00,
2013-03-14 19:29:00,61.9,46.4,30.17,NNE,16,11.0,16.0,57,0.00,,,0.00,0.0,meteohub,2013-03-14 23:29:00,
2013-03-14 19:34:00,61.9,46.4,30.17,NNE,15,10.0,15.0,57,0.00,,,0.00,0.0,meteohub,2013-03-14 23:34:00,
2013-03-14 19:39:00,61.5,47.1,30.17,NNE,28,7.0,17.0,59,0.00,,,0.00,0.0,meteohub,2013-03-14 23:39:00,
2013-03-14 19:44:00,61.2,47.1,30.17,NNE,32,12.0,17.0,60,0.00,,,0.00,0.0,meteohub,2013-03-14 23:44:00,
2013-03-14 19:49:00,61.0,47.8,30.17,NNE,24,6.0,15.0,62,0.00,,,0.00,0.0,meteohub,2013-03-14 23:49:00,
2013-03-14 19:54:00,60.8,48.2,30.17,NNE,19,13.0,15.0,63,0.00,,,0.00,0.0,meteohub,2013-03-14 23:54:00,
2013-03-14 19:59:00,60.6,48.0,30.17,North,11,8.0,15.0,63,0.00,,,0.00,0.0,meteohub,2013-03-14 23:59:00,
2013-03-14 20:04:00,60.4,48.2,30.17,NNE,25,9.0,16.0,64,0.00,,,0.00,0.0,meteohub,2013-03-15 00:04:00,
2013-03-14 20:09:00,60.4,48.2,30.17,NNE,28,10.0,16.0,64,0.00,,,0.00,0.0,meteohub,2013-03-15 00:09:00,
2013-03-14 20:14:00,60.1,48.2,30.18,North,5,7.0,16.0,65,0.00,,,0.00,0.0,meteohub,2013-03-15 00:14:00,
2013-03-14 20:20:00,60.1,48.7,30.18,NNE,28,7.0,14.0,66,0.00,,,0.00,0.0,meteohub,2013-03-15 00:20:00,
2013-03-14 20:25:00,59.7,48.7,30.17,NNE,24,6.0,14.0,67,0.00,,,0.00,0.0,meteohub,2013-03-15 00:25:00,
2013-03-14 20:30:00,59.5,48.6,30.17,NNE,28,4.0,14.0,67,0.00,,,0.00,0.0,meteohub,2013-03-15 00:30:00,
2013-03-14 20:35:00,59.5,48.9,30.18,NNE,28,3.0,12.0,68,0.00,,,0.00,0.0,meteohub,2013-03-15 00:35:00,
2013-03-14 20:40:00,59.4,48.7,30.18,NE,51,8.0,13.0,68,0.00,,,0.00,0.0,meteohub,2013-03-15 00:40:00,
2013-03-14 20:45:00,59.2,49.1,30.18,NNE,30,3.0,13.0,69,0.00,,,0.00,0.0,meteohub,2013-03-15 00:45:00,
2013-03-14 20:50:00,59.0,48.9,30.18,North,5,8.0,13.0,69,0.00,,,0.00,0.0,meteohub,2013-03-15 00:50:00,
2013-03-14 20:55:00,59.0,48.9,30.18,NNE,19,8.0,11.0,69,0.00,,,0.00,0.0,meteohub,2013-03-15 00:55:00,
2013-03-14 21:00:00,58.8,48.7,30.18,North,355,8.0,11.0,69,0.00,,,0.00,0.0,meteohub,2013-03-15 01:00:00,
2013-03-14 21:05:00,58.8,49.1,30.18,NNE,27,9.0,12.0,70,0.00,,,0.00,0.0,meteohub,2013-03-15 01:05:00,
2013-03-14 21:10:00,58.6,48.9,30.19,NNE,14,9.0,12.0,70,0.00,,,0.00,0.0,meteohub,2013-03-15 01:10:00,
2013-03-14 21:15:00,58.6,49.3,30.19,North,5,7.0,11.0,71,0.00,,,0.00,0.0,meteohub,2013-03-15 01:15:00,
2013-03-14 21:20:00,58.6,49.3,30.19,North,5,8.0,11.0,71,0.00,,,0.00,0.0,meteohub,2013-03-15 01:20:00,
2013-03-14 21:25:00,58.5,49.5,30.19,NNE,21,6.0,11.0,72,0.00,,,0.00,0.0,meteohub,2013-03-15 01:25:00,
2013-03-14 21:30:00,58.3,49.3,30.19,North,9,5.0,11.0,72,0.00,,,0.00,0.0,meteohub,2013-03-15 01:30:00,
2013-03-14 21:35:00,58.3,49.3,30.19,NNE,24,4.0,10.0,72,0.00,,,0.00,0.0,meteohub,2013-03-15 01:35:00,
2013-03-14 21:40:00,58.3,49.6,30.19,NE,40,5.0,10.0,73,0.00,,,0.00,0.0,meteohub,2013-03-15 01:40:00,
2013-03-14 21:45:00,58.1,49.5,30.19,NNE,17,3.0,10.0,73,0.00,,,0.00,0.0,meteohub,2013-03-15 01:45:00,
2013-03-14 21:50:00,58.1,49.5,30.19,North,0,5.0,9.0,73,0.00,,,0.00,0.0,meteohub,2013-03-15 01:50:00,
2013-03-14 21:56:00,57.9,49.3,30.19,NNE,19,6.0,9.0,73,0.00,,,0.00,0.0,meteohub,2013-03-15 01:56:00,
2013-03-14 22:01:00,57.9,49.6,30.19,North,5,4.0,10.0,74,0.00,,,0.00,0.0,meteohub,2013-03-15 02:01:00,
2013-03-14 22:06:00,57.7,49.5,30.19,NNE,15,5.0,10.0,74,0.00,,,0.00,0.0,meteohub,2013-03-15 02:06:00,
2013-03-14 22:11:00,57.7,49.8,30.19,North,0,5.0,10.0,75,0.00,,,0.00,0.0,meteohub,2013-03-15 02:11:00,
2013-03-14 22:16:00,57.6,49.6,30.19,North,5,8.0,8.0,75,0.00,,,0.00,0.0,meteohub,2013-03-15 02:16:00,
2013-03-14 22:21:00,57.6,49.6,30.19,North,5,7.0,8.0,75,0.00,,,0.00,0.0,meteohub,2013-03-15 02:21:00,
2013-03-14 22:26:00,57.6,50.0,30.19,NNW,347,7.0,9.0,76,0.00,,,0.00,0.0,meteohub,2013-03-15 02:26:00,
2013-03-14 22:31:00,57.4,49.8,30.19,North,0,5.0,9.0,76,0.00,,,0.00,0.0,meteohub,2013-03-15 02:31:00,
2013-03-14 22:36:00,57.4,49.8,30.20,North,350,7.0,9.0,76,0.00,,,0.00,0.0,meteohub,2013-03-15 02:36:00,
2013-03-14 22:41:00,57.4,49.8,30.20,North,9,7.0,9.0,76,0.00,,,0.00,0.0,meteohub,2013-03-15 02:41:00,
2013-03-14 22:47:00,57.4,50.2,30.20,North,5,5.0,10.0,77,0.00,,,0.00,0.0,meteohub,2013-03-15 02:47:00,
2013-03-14 22:52:00,57.4,50.2,30.20,North,355,7.0,10.0,77,0.00,,,0.00,0.0,meteohub,2013-03-15 02:52:00,
2013-03-14 22:57:00,57.4,50.2,30.20,North,355,7.0,10.0,77,0.00,,,0.00,0.0,meteohub,2013-03-15 02:57:00,
2013-03-14 23:02:00,57.4,50.2,30.19,North,5,7.0,11.0,77,0.00,,,0.00,0.0,meteohub,2013-03-15 03:02:00,
2013-03-14 23:07:00,57.4,50.2,30.19,North,350,8.0,11.0,77,0.00,,,0.00,0.0,meteohub,2013-03-15 03:07:00,
2013-03-14 23:13:00,57.6,50.4,30.20,North,0,7.0,11.0,77,0.00,,,0.00,0.0,meteohub,2013-03-15 03:13:00,
2013-03-14 23:18:00,57.6,50.4,30.19,North,355,7.0,11.0,77,0.00,,,0.00,0.0,meteohub,2013-03-15 03:18:00,
2013-03-14 23:23:00,57.6,50.4,30.20,North,350,7.0,10.0,77,0.00,,,0.00,0.0,meteohub,2013-03-15 03:23:00,
2013-03-14 23:28:00,57.6,50.4,30.20,NNW,340,8.0,10.0,77,0.00,,,0.00,0.0,meteohub,2013-03-15 03:28:00,
2013-03-14 23:33:00,57.6,50.4,30.20,NNW,343,4.0,10.0,77,0.00,,,0.00,0.0,meteohub,2013-03-15 03:33:00,
2013-03-14 23:38:00,57.6,50.4,30.20,NNW,343,7.0,10.0,77,0.00,,,0.00,0.0,meteohub,2013-03-15 03:38:00,
2013-03-14 23:43:00,57.4,50.5,30.20,North,350,6.0,10.0,78,0.00,,,0.00,0.0,meteohub,2013-03-15 03:43:00,
2013-03-14 23:48:00,57.2,50.4,30.20,NNW,340,5.0,9.0,78,0.00,,,0.00,0.0,meteohub,2013-03-15 03:48:00,
2013-03-14 23:53:00,57.2,50.4,30.20,NNW,348,10.0,10.0,78,0.00,,,0.00,0.0,meteohub,2013-03-15 03:53:00,
2013-03-14 23:58:00,57.0,50.5,30.20,North,349,6.0,10.0,79,0.00,,,0.00,0.0,meteohub,2013-03-15 03:58:00,